FW0209 Weather Reports


Display with metric or nautical units.
time (UTC)temp
F
wind
direction
speed
MPH
gust
MPH
rain 1hr
in
rain 24hr
in
rain mn
in
humidity
%
barometer
mb
20260507103105 68 182 0.0 0.0 0.00 0.08 0.02 55 1016.2
20260507101543 66 190 0.0 0.0 0.00 0.08 0.02 56 1016.4
20260507100021 65 187 0.0 0.0 0.00 0.08 0.02 57 1016.6
20260507094522 66 189 0.0 0.0 0.00 0.08 0.02 59 1016.5
20260507093021 65 184 0.0 0.0 0.00 0.08 0.02 60 1016.6
20260507091535 64 184 0.0 0.0 0.00 0.08 0.02 63 1016.6
20260507090013 63 190 0.0 0.0 0.00 0.08 0.02 65 1016.8
20260507084549 63 191 0.0 0.0 0.00 0.08 0.02 65 1017.0
20260507083011 63 188 0.0 0.0 0.00 0.08 0.02 67 1017.0
20260507081530 62 188 0.0 0.0 0.00 0.08 0.02 67 1017.0
20260507080022 63 183 0.0 0.0 0.00 0.08 0.02 68 1017.1
20260507074523 62 189 0.0 0.0 0.00 0.16 0.02 70 1017.0
20260507073015 61 188 0.0 0.0 0.00 0.16 0.02 72 1016.9
20260507071515 59 186 0.0 0.0 0.00 0.16 0.02 76 1016.9
20260507070016 57 184 0.0 0.0 0.00 0.16 0.02 81 1016.9
20260507064514 55 192 0.0 0.0 0.00 0.16 0.02 84 1017.0
20260507063015 54 157 1.0 6.0 0.00 0.16 0.02 86 1016.9
20260507061512 53 149 2.0 5.0 0.00 0.16 0.02 87 1017.0
20260507060046 53 147 0.0 3.0 0.00 0.16 0.02 88 1017.0
20260507054545 52 145 0.0 1.0 0.00 0.16 0.02 88 1017.0
20260507053020 52 149 0.0 5.0 0.00 0.16 0.02 88 1016.9
20260507051538 52 147 2.0 5.0 0.00 0.16 0.02 88 1016.9
20260507050011 52 146 0.0 4.0 0.00 0.16 0.02 88 1016.7
20260507044530 51 146 2.0 4.0 0.00 0.16 0.02 88 1016.6
20260507043029 51 147 0.0 0.0 0.04 0.16 0.02 88 1016.5
20260507041532 51 148 3.0 6.0 0.04 0.16 0.02 87 1016.4
20260507040049 51 147 2.0 6.0 0.04 0.16 0.02 87 1016.3
20260507034527 51 147 5.0 9.0 0.04 0.24 0.02 86 1016.2
20260507033028 52 146 3.0 9.0 0.00 0.20 0.01 86 1016.2
20260507031526 52 146 4.0 7.0 0.00 0.20 0.01 85 1016.2
20260507030045 52 148 4.0 10.0 0.00 0.20 0.01 83 1016.0
20260507024547 53 148 5.0 7.0 0.00 0.28 0.01 81 1015.9
20260507023046 53 148 2.0 7.0 0.00 0.28 0.01 80 1016.0
20260507021524 53 154 4.0 7.0 0.00 0.28 0.01 80 1015.9
20260507020027 54 153 3.0 8.0 0.00 0.28 0.01 80 1016.1
20260507014526 54 152 2.0 5.0 0.00 0.28 0.01 80 1015.9
20260507013027 54 151 1.0 6.0 0.00 0.28 0.01 79 1015.9
20260507011525 54 152 1.0 3.0 0.00 0.28 0.01 78 1015.8
20260507010022 54 152 1.0 3.0 0.00 0.28 0.01 78 1015.9
20260507004524 54 151 2.0 5.0 0.00 0.28 0.01 78 1015.9
20260507003016 54 152 0.0 2.0 0.00 0.28 0.01 78 1015.8
20260507001517 54 152 0.0 6.0 0.00 0.28 0.01 77 1015.8
20260507000049 54 152 1.0 7.0 0.04 0.28 0.01 77 1016.0
20260506234526 55 153 0.0 6.0 0.04 0.28 0.01 77 1016.1
20260506233043 55 153 1.0 5.0 0.04 0.28 0.01 77 1016.2
20260506231545 55 150 1.0 3.0 0.04 0.28 0.01 76 1016.2
20260506230043 56 152 0.0 5.0 0.00 0.24 0.00 75 1016.4
20260506224520 56 155 0.0 3.0 0.00 0.24 0.06 73 1016.5
20260506223040 56 164 2.0 6.0 0.00 0.24 0.06 72 1016.6
20260506221515 56 164 0.0 2.0 0.00 0.24 0.06 71 1016.6
20260506220034 56 165 0.0 5.0 0.00 0.24 0.06 71 1016.7
20260506214513 57 166 0.0 10.0 0.00 0.24 0.06 71 1016.5
20260506213029 57 167 2.0 8.0 0.00 0.24 0.06 70 1016.7
20260506211531 57 167 4.0 8.0 0.00 0.24 0.06 69 1016.7
20260506210025 57 168 2.0 8.0 0.00 0.24 0.06 69 1016.9
20260506204525 57 169 1.0 12.0 0.00 0.24 0.06 70 1016.8
20260506203042 58 172 3.0 8.0 0.00 0.24 0.06 69 1016.8
20260506201513 58 171 2.0 10.0 0.00 0.24 0.06 69 1016.9
20260506200031 58 172 0.0 1.0 0.00 0.24 0.06 69 1016.9
20260506194512 58 172 0.0 7.0 0.00 0.24 0.06 69 1016.8
20260506193109 58 173 2.0 6.0 0.00 0.24 0.06 69 1016.6
20260506191544 59 174 0.0 8.0 0.00 0.24 0.06 69 1016.5
20260506190021 59 174 0.0 1.0 0.00 0.24 0.06 68 1016.4
20260506184513 60 174 0.0 0.0 0.00 0.24 0.06 69 1016.0
20260506183032 60 173 0.0 3.0 0.00 0.24 0.06 68 1015.9
20260506181531 60 173 4.0 8.0 0.00 0.24 0.06 68 1015.9
20260506180026 60 175 2.0 7.0 0.00 0.24 0.06 69 1015.7
20260506174523 61 175 6.0 9.0 0.00 0.24 0.06 69 1015.6
20260506173025 61 174 3.0 14.0 0.00 0.24 0.06 68 1015.5
20260506171542 62 178 0.0 5.0 0.00 0.24 0.06 66 1015.3
20260506170019 62 172 0.0 2.0 0.00 0.24 0.06 65 1015.4
20260506164537 62 168 6.0 12.0 0.00 0.24 0.06 64 1015.3
20260506163013 63 175 2.0 6.0 0.00 0.24 0.06 63 1015.3
20260506161512 63 179 0.0 0.0 0.00 0.24 0.06 62 1015.4
20260506160049 64 210 0.0 1.0 0.00 0.24 0.06 62 1015.5
20260506154524 64 217 0.0 6.0 0.00 0.24 0.06 62 1015.6
20260506153027 64 219 5.0 14.0 0.00 0.24 0.06 60 1015.7
20260506151542 65 195 4.0 11.0 0.00 0.24 0.06 59 1015.5
20260506150015 66 198 4.0 12.0 0.00 0.24 0.06 57 1015.4
20260506144517 66 167 0.0 11.0 0.00 0.24 0.06 56 1015.4
20260506143015 67 193 4.0 10.0 0.00 0.24 0.06 55 1015.4
20260506141513 67 198 2.0 6.0 0.00 0.24 0.06 56 1015.3
20260506140027 68 199 0.0 12.0 0.00 0.24 0.06 56 1015.4
20260506134526 68 165 0.0 2.0 0.00 0.24 0.06 57 1015.2
20260506133025 69 165 1.0 7.0 0.00 0.24 0.06 57 1015.4
20260506131523 69 168 2.0 13.0 0.00 0.24 0.06 56 1015.6
20260506130016 69 180 0.0 3.0 0.00 0.24 0.06 56 1015.6
20260506124514 69 177 0.0 9.0 0.00 0.24 0.06 56 1015.7
20260506123033 69 180 0.0 6.0 0.00 0.24 0.06 58 1015.6
20260506121528 68 180 3.0 12.0 0.00 0.24 0.06 59 1015.9
20260506120047 67 188 3.0 12.0 0.00 0.24 0.06 61 1016.0
20260506114603 66 211 0.0 0.0 0.00 0.24 0.06 62 1016.0
20260506113016 65 223 0.0 0.0 0.00 0.24 0.06 66 1016.3
20260506111533 65 225 0.0 0.0 0.00 0.24 0.06 66 1016.5
20260506110024 64 223 0.0 0.0 0.00 0.24 0.06 68 1016.5
20260506104542 63 219 0.0 0.0 0.00 0.24 0.06 70 1016.6